[[{"header":{"parameterUnit":"m.s-1","parameterCategory":1,"la1":30.2992,"la2":30.254,"lo1":-89.0895,"lo2":-89.0443,"dy":0.0025,"dx":0.0025,"nx":19,"ny":19,"refTime":"2026-04-27T21:00:00:Z","depth":0,"parameterNumber":2,"parameterNumberName":"U-component_of_WINDS"},"data":[0,0,0,-1.0331,-1.0332,-1.0357,-1.0357,-1.0386,-1.0386,0,0,0,0,0,0,0,0,0,0,0,-1.032,-1.032,-1.0331,-1.0332,-1.0357,-1.0357,-1.0386,-1.0386,0,0,0,0,0,0,0,0,0,0,0,-1.032,-1.032,-1.032,-1.0332,-1.0357,-1.0357,-1.0386,-1.0368,0,0,0,0,0,0,0,0,0,0,-1.0344,-1.033,-1.032,-1.032,-1.0332,-1.0357,-1.0357,-1.0367,-1.0369,-1.0372,0,-1.0373,0,-1.038,-1.0388,-1.0388,0,0,0,-1.0334,-1.0329,-1.0339,-1.032,-1.0332,-1.0357,-1.0347,-1.0368,-1.0371,-1.0374,-1.0373,-1.0375,-1.038,-1.0388,-1.0388,-1.0393,-1.0393,0,0,-1.0333,-1.0323,-1.0337,-1.034,-1.0335,-1.0346,-1.0347,-1.037,-1.0368,-1.0374,-1.0375,-1.0381,-1.0388,-1.0388,-1.0393,-1.0393,0,0,0,-1.0327,-1.0322,-1.0332,-1.0339,-1.0343,-1.0346,-1.0348,-1.0367,-1.0371,-1.0376,-1.0381,-1.0388,-1.0388,-1.0394,-1.0393,-1.0378,0,0,0,-1.0326,-1.0319,-1.0331,-1.0325,-1.0343,-1.0356,-1.0345,-1.037,-1.0372,-1.0381,-1.0388,-1.0388,-1.0394,-1.0393,-1.0379,-1.0373,0,0,0,-1.032,-1.0318,-1.032,-1.0324,-1.0335,-1.0355,-1.0361,-1.037,-1.0376,-1.0388,-1.0389,-1.0394,-1.0393,-1.0379,-1.0374,-1.0371,0,0,0,-1.031,-1.0307,-1.032,-1.0318,-1.0335,-1.0346,-1.0361,-1.037,-1.0378,-1.0388,-1.0394,-1.0393,-1.038,-1.0374,-1.0372,-1.0367,-1.0364,0,0,-1.03,-1.0305,-1.0305,-1.0318,-1.0324,-1.0342,-1.0347,-1.0364,-1.0375,-1.0387,-1.0387,-1.0379,-1.0374,-1.0371,-1.0352,-1.0349,0,0,0,-1.0299,-1.0299,-1.0302,-1.031,-1.0323,-1.0334,-1.0351,-1.0358,-1.0368,-1.0379,-1.0377,-1.0375,-1.0374,-1.0372,-1.037,-1.037,-1.0392,-1.0392,-1.0392,-1.0271,-1.0284,-1.0285,-1.0302,-1.0309,-1.0327,-1.0335,-1.0347,-1.0359,-1.0358,-1.0362,-1.0348,-1.0345,-1.0344,-1.0344,-1.036,-1.036,-1.036,-1.036,-1.0258,-1.026,-1.0276,-1.0282,-1.0297,-1.0303,-1.0321,-1.0329,-1.0337,-1.0346,-1.0346,-1.0355,-1.0341,-1.0341,-1.0359,-1.0359,-1.036,-1.036,-1.036,-1.0241,-1.0245,-1.0252,-1.0264,-1.0272,-1.029,-1.0297,-1.031,-1.0322,-1.0322,-1.0327,-1.0328,-1.033,-1.0324,-1.0324,-1.0324,-1.0324,-1.0324,-1.0324,-1.0221,-1.023,-1.0234,-1.0247,-1.0254,-1.0264,-1.0283,-1.029,-1.0302,-1.0311,-1.0311,-1.0323,-1.0337,-1.034,-1.0323,-1.0323,-1.0323,-1.0323,-1.0323,-1.0203,-1.0209,-1.0215,-1.0221,-1.0238,-1.0246,-1.0262,-1.0276,-1.0284,-1.0287,-1.0299,-1.0307,-1.0313,-1.0315,-1.0318,-1.0296,-1.0296,-1.0296,-1.0296,-1.0188,-1.0193,-1.0202,-1.0211,-1.0222,-1.0238,-1.0245,-1.026,-1.0276,-1.0282,-1.0288,-1.0292,-1.0294,-1.0299,-1.0301,-1.0304,-1.0279,-1.0279,-1.0279,-1.0178,-1.0184,-1.0187,-1.0202,-1.0217,-1.0229,-1.0237,-1.0248,-1.0268,-1.0278,-1.0287,-1.0288,-1.0296,-1.0298,-1.0308,-1.0311,-1.0317,0,0]},{"header":{"parameterUnit":"m.s-1","parameterCategory":1,"la1":30.2992,"la2":30.254,"lo1":-89.0895,"lo2":-89.0443,"dy":0.0025,"dx":0.0025,"nx":19,"ny":19,"refTime":"2026-04-27T21:00:00:Z","depth":0,"parameterNumber":3,"parameterNumberName":"V-component_of_WINDS"},"data":[0,0,0,6.3354,6.3357,6.3477,6.3478,6.3638,6.3639,0,0,0,0,0,0,0,0,0,0,0,6.3326,6.3327,6.3354,6.3357,6.3477,6.3478,6.3637,6.3639,0,0,0,0,0,0,0,0,0,0,0,6.3325,6.3327,6.3329,6.3358,6.3477,6.3478,6.3637,6.3543,0,0,0,0,0,0,0,0,0,0,6.3425,6.3408,6.3327,6.3329,6.3358,6.3477,6.3478,6.3538,6.3549,6.3587,0,6.3626,0,6.3636,6.3651,6.3651,0,0,0,6.335,6.3399,6.3425,6.3329,6.336,6.3477,6.3421,6.3544,6.3556,6.3601,6.3629,6.3634,6.3638,6.3652,6.3653,6.3902,6.3903,0,0,6.3344,6.3351,6.3417,6.3433,6.3419,6.3417,6.3425,6.3551,6.358,6.3629,6.3638,6.3641,6.3653,6.3654,6.3901,6.3902,0,0,0,6.3329,6.3347,6.3369,6.3427,6.3448,6.3421,6.343,6.3575,6.3581,6.3639,6.3643,6.3654,6.3656,6.3899,6.3901,6.3982,0,0,0,6.3325,6.3338,6.3367,6.3372,6.3446,6.3514,6.345,6.3573,6.3587,6.3642,6.3654,6.3658,6.3897,6.39,6.3977,6.4019,0,0,0,6.3315,6.3337,6.3357,6.3372,6.3425,6.3512,6.3526,6.3576,6.3589,6.3651,6.3658,6.3896,6.39,6.3972,6.4011,6.4087,0,0,0,6.3307,6.3427,6.3359,6.3494,6.3424,6.3562,6.3525,6.3626,6.3689,6.3655,6.3898,6.3901,6.397,6.4006,6.4081,6.4152,6.4183,0,0,6.3462,6.3446,6.3524,6.3467,6.362,6.3543,6.3706,6.3755,6.3752,6.3851,6.3857,6.3979,6.401,6.4085,6.4351,6.4375,0,0,0,6.3576,6.3633,6.3671,6.3733,6.3775,6.3814,6.3838,6.3855,6.394,6.3806,6.4026,6.4045,6.4089,6.4122,6.4143,6.4179,6.3917,6.3917,6.3916,6.3806,6.3798,6.3927,6.3934,6.3994,6.4017,6.4064,6.4091,6.4064,6.4116,6.4146,6.4308,6.4347,6.4363,6.4401,6.4182,6.4183,6.4183,6.4183,6.4032,6.4111,6.4073,6.4185,6.4175,6.4267,6.4293,6.4271,6.4353,6.4285,6.4323,6.425,6.439,6.4423,6.4189,6.4188,6.4187,6.4187,6.4186,6.4182,6.4218,6.4239,6.4327,6.4394,6.4395,6.4477,6.4463,6.4451,6.4489,6.4518,6.4516,6.4513,6.4504,6.4504,6.4505,6.4505,6.4506,6.4506,6.4329,6.435,6.4422,6.4477,6.4514,6.456,6.4584,6.4619,6.4653,6.4637,6.4637,6.4604,6.4406,6.4356,6.4515,6.4513,6.4512,6.4511,6.4511,6.4561,6.4507,6.4618,6.4656,6.4717,6.4783,6.4766,6.4838,6.4864,6.4904,6.4863,6.4719,6.47,6.4683,6.4642,6.4865,6.4865,6.4865,6.4865,6.4688,6.4677,6.4788,6.4848,6.4905,6.49,6.5022,6.504,6.5049,6.5065,6.503,6.4974,6.4958,6.4949,6.4926,6.4887,6.5168,6.5169,6.5169,6.4829,6.4824,6.4933,6.4944,6.499,6.5029,6.5143,6.5211,6.5209,6.5181,6.5076,6.5063,6.4972,6.4943,6.4913,6.4878,6.4807,0,0]}]]